[[{"header":{"parameterUnit":"m.s-1","parameterCategory":1,"la1":30.2991,"la2":30.254,"lo1":-89.0895,"lo2":-89.0444,"dy":0.0017,"dx":0.0017,"nx":28,"ny":28,"refTime":"2024-04-03T09:00:00:Z","depth":0,"parameterNumber":2,"parameterNumberName":"U-component_of_WINDS"},"data":[0,0,0,0,0,0,0,0,0,0,0,0,0,0,0,0,0,0,0,0,0,0,0,0,0,0,0,0,0,0,0,0,0,0,0,0,0,0,0,0,0,0,0,0,0,0,0,0,0,0,0,0,0,0,0,0,0,0,4.0366,4.0366,0,4.0413,4.0413,4.0414,4.0406,4.0405,4.0404,4.0403,4.0451,4.0453,4.0455,0,0,0,0,0,0,0,0,0,0,0,0,0,4.027,4.0272,4.0366,4.0366,4.0367,4.0413,4.0413,4.0414,4.0406,4.0405,4.0404,4.0403,4.045,4.0452,4.0455,0,0,0,0,0,0,0,0,0,0,0,0,0,4.0314,4.0273,4.0366,4.0368,4.0369,4.0413,4.0413,4.0414,4.0406,4.0405,4.0404,4.0402,4.0449,4.0452,4.0455,4.0499,0,0,4.0465,4.0466,0,0,0,0,0,0,0,0,4.0311,4.0317,4.0367,4.0368,4.0369,4.0402,4.0397,4.0443,4.0406,4.0392,4.0403,4.0402,4.0436,4.044,4.0451,4.0501,4.0503,4.0465,4.0467,4.0468,4.0469,0,0,0,0,0,0,0,4.0308,4.0315,4.0384,4.0368,4.0369,4.0368,4.0373,4.0406,4.042,4.0393,4.0393,4.0398,4.0436,4.0448,4.0452,4.0504,4.0465,4.0467,4.0469,4.0471,4.0595,4.0596,0,0,0,0,0,0,4.0304,4.0313,4.0383,4.0386,4.0337,4.037,4.0376,4.0393,4.042,4.0423,4.0399,4.0398,4.0444,4.0449,4.0454,4.0508,4.0468,4.0471,4.0473,4.0593,4.0595,4.0597,0,0,0,0,0,0,4.0302,4.0311,4.0381,4.0349,4.0358,4.0373,4.0393,4.0394,4.0407,4.0424,4.0427,4.0409,4.0443,4.045,4.0488,4.051,4.0472,4.0475,4.0591,4.0594,4.0596,4.0616,0,0,0,0,0,0,4.03,4.031,4.0326,4.035,4.036,4.0414,4.0394,4.0396,4.0412,4.0411,4.0435,4.0437,4.0442,4.0484,4.0491,4.0513,4.0477,4.059,4.0592,4.0595,4.0614,4.0619,4.0623,0,0,0,0,0,4.0296,4.033,4.0327,4.0336,4.038,4.0416,4.0421,4.0427,4.0414,4.0431,4.0443,4.0437,4.0506,4.0488,4.0496,4.0519,4.0588,4.0592,4.0595,4.0612,4.0618,4.0623,0,0,0,0,0,0,4.0307,4.0333,4.033,4.0372,4.0392,4.0414,4.0435,4.0433,4.0456,4.0454,4.046,4.0465,4.0505,4.0516,4.0495,4.0564,4.0546,4.0551,4.0555,4.0562,4.0566,4.0563,4.048,0,0,0,0,0,4.0315,4.0341,4.0362,4.0397,4.0407,4.042,4.0435,4.0438,4.0458,4.0467,4.0481,4.0501,4.0528,4.0545,4.0571,4.0616,4.0622,4.0636,4.0641,4.0645,4.0649,4.0676,4.0683,4.0607,4.0607,4.0607,0,0,4.033,4.0347,4.0363,4.0399,4.0415,4.0443,4.0427,4.0456,4.0477,4.0471,4.0509,4.0521,4.0544,4.0586,4.0606,4.0597,4.0671,4.0649,4.0652,4.0654,4.068,4.0687,4.0693,4.061,4.0609,4.0609,0,0,4.0372,4.0387,4.0419,4.0436,4.046,4.0469,4.0477,4.05,4.0508,4.0546,4.0543,4.0568,4.0614,4.0631,4.0646,4.0698,4.0694,4.0706,4.0731,4.0757,4.0763,4.0768,4.0788,4.0794,4.071,4.071,4.071,0,4.0388,4.0429,4.0435,4.0466,4.0483,4.048,4.0513,4.0529,4.056,4.0572,4.0562,4.062,4.0636,4.0683,4.0696,4.0708,4.0718,4.0703,4.0761,4.0767,4.0772,4.0791,4.0798,4.0712,4.0711,4.0711,4.0711,0,4.0448,4.0478,4.05,4.0532,4.0551,4.0583,4.0594,4.0613,4.0615,4.0625,4.0666,4.0684,4.0714,4.0726,4.0727,4.0775,4.0769,4.076,4.0741,4.078,4.0798,4.0805,4.0714,4.0713,4.0713,4.0712,0,0,4.0497,4.0534,4.0542,4.0557,4.0585,4.0608,4.064,4.0671,4.0687,4.071,4.0738,4.0778,4.0771,4.0787,4.0791,4.0814,4.0856,4.0802,4.0803,4.0812,4.0911,4.0917,4.0926,4.0854,4.0855,4.0856,4.0909,0,4.0543,4.06,4.0607,4.0658,4.0686,4.0685,4.0713,4.0734,4.0745,4.0771,4.0783,4.0812,4.0799,4.081,4.0832,4.0846,4.0876,4.0842,4.088,4.0881,4.0875,4.0935,4.0941,4.0991,4.0916,4.0917,4.0918,0,4.0603,4.0628,4.0682,4.0709,4.0721,4.0746,4.0776,4.08,4.0824,4.0831,4.0851,4.0853,4.0887,4.0868,4.0916,4.0893,4.0909,4.0919,4.0921,4.0925,4.0902,4.0941,4.1006,4.1014,4.0929,4.0928,4.0927,0,4.0634,4.0682,4.0721,4.0734,4.0765,4.0784,4.0798,4.0821,4.0839,4.0865,4.0878,4.0907,4.0923,4.0947,4.0957,4.0941,4.1005,4.0986,4.1012,4.1012,4.1025,4.1024,4.1095,4.1035,4.1035,4.1035,4.1035,0,4.0685,4.0718,4.0736,4.076,4.0798,4.0807,4.0844,4.0858,4.0879,4.0906,4.0907,4.0932,4.0944,4.0972,4.098,4.102,4.1027,4.1034,4.1035,4.1034,4.1033,4.1044,4.1041,4.1037,4.1037,4.1036,4.1036,0,4.0726,4.0739,4.0782,4.0809,4.0817,4.0844,4.0867,4.0891,4.0902,4.0937,4.0946,4.0964,4.0997,4.101,4.1049,4.1055,4.1101,4.11,4.1093,4.1094,4.112,4.1118,4.12,4.1212,4.1144,4.1145,4.1146,0,4.0757,4.0783,4.0814,4.0832,4.0847,4.0877,4.0896,4.0907,4.0927,4.0958,4.0979,4.1012,4.1039,4.1092,4.1109,4.114,4.114,4.1167,4.1144,4.1143,4.1141,4.114,4.1143,4.1171,4.1171,4.1172,4.1172,0,4.0812,4.0818,4.0845,4.0877,4.09,4.0925,4.0949,4.0964,4.0979,4.1002,4.1036,4.1057,4.1099,4.1132,4.1165,4.118,4.1179,4.118,4.1188,4.1186,4.1181,4.1185,4.1105,4.1177,4.1177,4.1177,4.1176,4.1176,4.0849,4.0873,4.0899,4.0931,4.0951,4.0974,4.0998,4.1014,4.1042,4.1077,4.1082,4.1119,4.1145,4.1189,4.1205,4.1235,4.1228,4.1239,4.1242,4.1245,4.1247,4.1177,4.1241,4.1241,4.1241,4.1241,4.1241,0,4.0905,4.0922,4.0951,4.0986,4.1011,4.1009,4.1037,4.1058,4.1091,4.1115,4.1142,4.1183,4.1216,4.1236,4.1269,4.1289,4.129,4.1298,4.1297,4.1301,4.1251,4.1241,4.1297,4.1297,4.1297,4.1297,4.1297,4.1297,4.0937,4.0977,4.0987,4.1038,4.1055,4.1091,4.1108,4.1129,4.1149,4.1194,4.1222,4.1235,4.1259,4.1294,4.1325,4.133,4.1343,4.1351,4.1356,4.131,4.1304,4.1298,4.1289,4.1354,4.1354,4.1403,4.1404,4.1404]},{"header":{"parameterUnit":"m.s-1","parameterCategory":1,"la1":30.2991,"la2":30.254,"lo1":-89.0895,"lo2":-89.0444,"dy":0.0017,"dx":0.0017,"nx":28,"ny":28,"refTime":"2024-04-03T09:00:00:Z","depth":0,"parameterNumber":3,"parameterNumberName":"V-component_of_WINDS"},"data":[0,0,0,0,0,0,0,0,0,0,0,0,0,0,0,0,0,0,0,0,0,0,0,0,0,0,0,0,0,0,0,0,0,0,0,0,0,0,0,0,0,0,0,0,0,0,0,0,0,0,0,0,0,0,0,0,0,0,-4.0966,-4.0966,0,-4.0996,-4.0997,-4.0997,-4.1022,-4.1022,-4.1022,-4.1023,-4.105,-4.105,-4.1051,0,0,0,0,0,0,0,0,0,0,0,0,0,-4.0928,-4.0928,-4.0966,-4.0966,-4.0967,-4.0996,-4.0997,-4.0997,-4.1022,-4.1022,-4.1022,-4.1023,-4.1049,-4.105,-4.1051,0,0,0,0,0,0,0,0,0,0,0,0,0,-4.095,-4.0928,-4.0966,-4.0983,-4.0984,-4.0996,-4.0997,-4.0997,-4.1022,-4.1022,-4.1023,-4.1023,-4.1049,-4.105,-4.1051,-4.1047,0,0,-4.1053,-4.1053,0,0,0,0,0,0,0,0,-4.0948,-4.0951,-4.098,-4.0981,-4.0983,-4.1006,-4.0993,-4.1014,-4.1022,-4.1007,-4.1023,-4.1023,-4.1034,-4.1036,-4.1041,-4.1048,-4.1049,-4.1053,-4.1053,-4.1054,-4.1054,0,0,0,0,0,0,0,-4.0947,-4.095,-4.0978,-4.098,-4.0982,-4.0988,-4.0992,-4.0997,-4.1018,-4.1009,-4.1011,-4.1014,-4.1035,-4.104,-4.1042,-4.105,-4.1053,-4.1053,-4.1054,-4.1054,-4.1058,-4.1058,0,0,0,0,0,0,-4.0943,-4.0948,-4.0977,-4.0979,-4.0967,-4.0989,-4.0993,-4.0998,-4.1018,-4.1022,-4.1014,-4.1015,-4.1039,-4.1041,-4.1043,-4.1042,-4.1054,-4.1054,-4.1055,-4.1059,-4.1058,-4.1058,0,0,0,0,0,0,-4.0942,-4.0945,-4.0975,-4.0964,-4.0968,-4.0989,-4.0995,-4.0998,-4.1003,-4.1022,-4.1026,-4.1015,-4.1039,-4.1042,-4.1047,-4.1043,-4.1055,-4.1055,-4.1059,-4.1059,-4.1058,-4.1038,0,0,0,0,0,0,-4.0941,-4.0945,-4.0944,-4.0964,-4.0969,-4.0979,-4.0995,-4.0999,-4.1005,-4.1007,-4.1024,-4.1027,-4.104,-4.1046,-4.1047,-4.1044,-4.1056,-4.1059,-4.1059,-4.1058,-4.1039,-4.1037,-4.1035,0,0,0,0,0,-4.0939,-4.0935,-4.0943,-4.0947,-4.0968,-4.0979,-4.0981,-4.0997,-4.1005,-4.1004,-4.1016,-4.1027,-4.1043,-4.1046,-4.1048,-4.1045,-4.106,-4.1059,-4.1058,-4.104,-4.1037,-4.1035,0,0,0,0,0,0,-4.0911,-4.0938,-4.0947,-4.0949,-4.0962,-4.0983,-4.0982,-4.0994,-4.1003,-4.1004,-4.1023,-4.1026,-4.1029,-4.1038,-4.104,-4.1044,-4.1053,-4.1053,-4.1038,-4.1036,-4.1034,-4.1031,-4.1056,0,0,0,0,0,-4.0906,-4.0913,-4.0935,-4.0935,-4.0941,-4.0961,-4.0966,-4.0978,-4.099,-4.0995,-4.1008,-4.1019,-4.1028,-4.1032,-4.104,-4.1041,-4.1046,-4.104,-4.1038,-4.1036,-4.1035,-4.1039,-4.1037,-4.1056,-4.1056,-4.1056,0,0,-4.0893,-4.0909,-4.0912,-4.093,-4.0941,-4.0948,-4.0965,-4.097,-4.0976,-4.0996,-4.1002,-4.1012,-4.1026,-4.1029,-4.1031,-4.1036,-4.1032,-4.1035,-4.1034,-4.1034,-4.1038,-4.1036,-4.1034,-4.1055,-4.1055,-4.1055,0,0,-4.0874,-4.0887,-4.0889,-4.0901,-4.0918,-4.0932,-4.0933,-4.0953,-4.0961,-4.0968,-4.0984,-4.0991,-4.1003,-4.1014,-4.1021,-4.1011,-4.1021,-4.1013,-4.1002,-4.1005,-4.1003,-4.1002,-4.1,-4.0998,-4.1012,-4.1012,-4.1012,0,-4.0856,-4.0868,-4.0888,-4.0895,-4.0903,-4.0924,-4.0927,-4.0937,-4.0955,-4.0961,-4.0967,-4.0986,-4.0996,-4.1004,-4.1002,-4.1006,-4.1008,-4.101,-4.1002,-4.1001,-4.1,-4.0998,-4.0997,-4.1011,-4.1011,-4.1011,-4.1011,0,-4.0846,-4.0855,-4.0854,-4.0875,-4.0883,-4.0887,-4.0908,-4.0914,-4.0926,-4.0939,-4.0948,-4.0962,-4.0975,-4.0978,-4.0988,-4.0987,-4.099,-4.0999,-4.1008,-4.0997,-4.0995,-4.0995,-4.1009,-4.101,-4.101,-4.101,0,0,-4.0807,-4.0842,-4.0841,-4.0852,-4.0875,-4.0882,-4.0888,-4.0903,-4.0909,-4.0922,-4.0928,-4.0941,-4.095,-4.0958,-4.097,-4.0973,-4.0966,-4.0982,-4.0982,-4.0979,-4.0968,-4.0961,-4.096,-4.0974,-4.0974,-4.0974,-4.0967,0,-4.0793,-4.0806,-4.0826,-4.0833,-4.0842,-4.0864,-4.087,-4.0885,-4.0898,-4.0908,-4.0922,-4.0931,-4.0942,-4.0948,-4.0952,-4.0966,-4.0964,-4.0967,-4.098,-4.098,-4.0975,-4.0959,-4.0951,-4.0944,-4.0967,-4.0966,-4.0966,0,-4.0776,-4.0791,-4.08,-4.0825,-4.083,-4.0835,-4.0852,-4.086,-4.0878,-4.0888,-4.0899,-4.0914,-4.0922,-4.0932,-4.0944,-4.0946,-4.0952,-4.0961,-4.0961,-4.0962,-4.0972,-4.096,-4.0942,-4.0941,-4.0965,-4.0965,-4.0965,0,-4.0749,-4.0771,-4.078,-4.0788,-4.0817,-4.0821,-4.0833,-4.0852,-4.086,-4.0875,-4.0881,-4.0896,-4.0904,-4.0915,-4.0933,-4.0938,-4.0945,-4.0955,-4.0953,-4.0953,-4.0952,-4.0952,-4.0935,-4.0956,-4.0957,-4.0957,-4.0957,0,-4.073,-4.0734,-4.0768,-4.0773,-4.078,-4.0803,-4.0809,-4.0823,-4.084,-4.0849,-4.0868,-4.0876,-4.09,-4.0911,-4.0925,-4.0934,-4.0937,-4.0946,-4.0949,-4.0944,-4.0943,-4.0948,-4.0949,-4.0956,-4.0956,-4.0956,-4.0956,0,-4.0699,-4.0722,-4.0733,-4.0762,-4.0769,-4.0773,-4.0797,-4.0803,-4.0819,-4.083,-4.0834,-4.0859,-4.0873,-4.0893,-4.0912,-4.0922,-4.0929,-4.0935,-4.0924,-4.0926,-4.0923,-4.0923,-4.0909,-4.0909,-4.093,-4.093,-4.0929,0,-4.0685,-4.069,-4.0721,-4.0729,-4.0741,-4.0754,-4.0764,-4.0788,-4.0798,-4.0821,-4.0825,-4.0841,-4.0855,-4.0876,-4.0895,-4.0911,-4.0917,-4.0912,-4.0919,-4.0915,-4.0918,-4.0918,-4.0919,-4.0909,-4.0909,-4.0908,-4.0908,0,-4.0659,-4.0672,-4.0686,-4.0706,-4.0718,-4.0734,-4.075,-4.0756,-4.0784,-4.0794,-4.081,-4.0821,-4.0843,-4.0858,-4.0877,-4.089,-4.0904,-4.0906,-4.0907,-4.0901,-4.0894,-4.0899,-4.0919,-4.0906,-4.0906,-4.0906,-4.0906,-4.0906,-4.0637,-4.0644,-4.0667,-4.0683,-4.07,-4.0716,-4.0724,-4.0743,-4.0757,-4.0778,-4.0791,-4.0807,-4.0827,-4.0855,-4.0867,-4.088,-4.0885,-4.0885,-4.0885,-4.0885,-4.0884,-4.0893,-4.0883,-4.0883,-4.0883,-4.0883,-4.0883,0,-4.0613,-4.063,-4.0645,-4.067,-4.0683,-4.0698,-4.0719,-4.0728,-4.0742,-4.0761,-4.0776,-4.0796,-4.0812,-4.0834,-4.0853,-4.0859,-4.0866,-4.0863,-4.0862,-4.0865,-4.0877,-4.0876,-4.0857,-4.0857,-4.0857,-4.0857,-4.0857,-4.0857,-4.0602,-4.0614,-4.063,-4.0651,-4.0668,-4.0685,-4.0695,-4.0711,-4.0727,-4.0748,-4.0763,-4.0778,-4.0799,-4.082,-4.0836,-4.0842,-4.0848,-4.0843,-4.0851,-4.0862,-4.0864,-4.0866,-4.0865,-4.0844,-4.0844,-4.0839,-4.0838,-4.0838]}]]